Kodiak, AK

1:57 AM AKDT on August 27, 2016 (GMT -0800)
Kodiak

Weather History for PADQ - November, 2013

Change the Weather History Date:

Tuesday, November 26, 2013

  Actual Average Record
Temperature  
Mean Temperature 35 °F 32 °F  
Max Temperature 41 °F 37 °F 51 °F (1981)
Min Temperature 29 °F 27 °F 7 °F (2011)
Degree Days  
Heating Degree Days 30 33  
Month to date heating degree days 712 802  
Since 1 July heating degree days 2260 2660  
Cooling Degree Days 0    
Month to date cooling degree days 0  
Year to date cooling degree days 6  
Moisture  
Dew Point 31 °F    
Average Humidity 0    
Maximum Humidity 0    
Minimum Humidity 0    
Precipitation  
Precipitation 0.00 in 0.25 in 1.83 in (1978)
Month to date precipitation 3.60 5.85  
Year to date precipitation 61.01 68.25  
Snow  
Snow 0.00 in 0.40 in 2.30 in (2006)
Month to date snowfall 5.0  
Since 1 September snowfall 7.3 6.1  
Snow Depth 0.00 in    
Sea Level Pressure  
Sea Level Pressure 29.86 in    
Wind  
Wind Speed 5 mph (WNW)    
Max Wind Speed 10 mph    
Max Gust Speed 16 mph    
Visibility 10 miles    
Events      
T = Trace of Precipitation, MM = Missing Value Source: NWS Daily Summary

Daily Weather History Graph

Daily Weather History Graph

Search for Another Location

Airport or City:

Trip Planner

Search our weather history database for the weather conditions in past years. The results will help you decide how hot, cold, wet, or windy it might be!

Date:

Astronomy

Nov. 26, 2013 Rise Set
Actual Time 9:19 AM AKST 4:34 PM AKST
Civil Twilight 8:31 AM AKST 5:22 PM AKST
Nautical Twilight 7:41 AM AKST 6:12 PM AKST
Astronomical Twilight 6:54 AM AKST 6:59 PM AKST
Moon 1:11 AM AKST (11/26) 2:02 PM AKST (11/26)
Length of Visible Light 8h 50m
Length of Day
7h 15m
Last Quarter, 40% of the Moon is Illuminated
Nov 26
Last Quarter
Dec 2
New
Dec 9
First Quarter
Dec 17
Full
Dec 25
Last Quarter

Hourly Weather History & Observations

Time (AKST) Temp. Windchill Dew Point Humidity Pressure Visibility Wind Dir Wind Speed Gust Speed Precip Events Conditions
12:53 AM 33.1 °F 30.0 °F 30.0 °F 89% 29.80 in 10.0 mi West 3.5 mph - N/A   Clear
1:53 AM 34.0 °F 29.8 °F 30.0 °F 85% 29.81 in 10.0 mi West 4.6 mph - N/A   Clear
2:53 AM 33.1 °F 28.7 °F 28.9 °F 85% 29.81 in 10.0 mi WSW 4.6 mph - N/A   Clear
3:53 AM 34.0 °F - 28.9 °F 82% 29.82 in 10.0 mi Calm Calm - N/A   Clear
4:53 AM 30.0 °F 26.5 °F 28.0 °F 92% 29.82 in 10.0 mi West 3.5 mph - N/A   Clear
5:53 AM 32.0 °F - 30.0 °F 92% 29.83 in 10.0 mi Calm Calm - N/A   Scattered Clouds
6:53 AM 35.1 °F 30.1 °F 30.9 °F 85% 29.83 in 10.0 mi NW 5.8 mph - N/A   Scattered Clouds
7:53 AM 32.0 °F - 28.9 °F 88% 29.83 in 10.0 mi Calm Calm - N/A   Overcast
8:53 AM 33.1 °F 27.7 °F 30.0 °F 89% 29.84 in 10.0 mi SW 5.8 mph - N/A   Mostly Cloudy
9:53 AM 32.0 °F 27.5 °F 30.0 °F 92% 29.85 in 10.0 mi WNW 4.6 mph - N/A   Mostly Cloudy
10:30 AM 33.8 °F 30.8 °F 30.2 °F 87% 29.86 in 10.0 mi West 3.5 mph - N/A   Overcast
10:53 AM 36.0 °F 33.3 °F 30.9 °F 82% 29.87 in 10.0 mi Variable 3.5 mph - N/A   Overcast
11:53 AM 36.0 °F 33.3 °F 32.0 °F 86% 29.87 in 10.0 mi West 3.5 mph - N/A   Overcast
12:53 PM 39.0 °F 34.8 °F 32.0 °F 76% 29.87 in 10.0 mi NW 5.8 mph - N/A   Overcast
1:53 PM 39.9 °F 34.5 °F 32.0 °F 73% 29.86 in 10.0 mi WNW 8.1 mph - N/A   Overcast
2:53 PM 39.9 °F 35.1 °F 32.0 °F 73% 29.86 in 10.0 mi NW 6.9 mph - N/A   Mostly Cloudy
3:53 PM 39.0 °F 32.3 °F 30.9 °F 73% 29.86 in 10.0 mi WNW 10.4 mph - N/A   Mostly Cloudy
4:53 PM 37.0 °F 31.6 °F 30.9 °F 79% 29.88 in 10.0 mi NW 6.9 mph - N/A   Mostly Cloudy
5:53 PM 37.0 °F 31.6 °F 30.9 °F 79% 29.88 in 10.0 mi NW 6.9 mph - N/A   Mostly Cloudy
6:53 PM 37.0 °F 30.4 °F 32.0 °F 82% 29.88 in 10.0 mi WNW 9.2 mph - N/A   Mostly Cloudy
7:53 PM 37.9 °F 31.5 °F 32.0 °F 79% 29.88 in 10.0 mi WNW 9.2 mph - N/A   Overcast
8:53 PM 37.9 °F 32.1 °F 30.9 °F 76% 29.89 in 10.0 mi WNW 8.1 mph - N/A   Overcast
9:53 PM 37.0 °F 31.0 °F 30.9 °F 79% 29.90 in 10.0 mi WNW 8.1 mph - N/A   Mostly Cloudy
10:53 PM 37.0 °F 32.4 °F 30.9 °F 79% 29.91 in 10.0 mi NNW 5.8 mph - N/A   Mostly Cloudy
11:53 PM 37.0 °F - 30.9 °F 79% 29.91 in 10.0 mi Calm Calm - N/A   Mostly Cloudy